Location: Bakhuizen
(52.8696°N, 5.4575°E)
Time: 22:08:44
(UTC+00:00)

Cosmos 1833 - Pass Details

Date: 27 September 2021
Orbit: 834 x 864 km, 70.9° (Epoch: 24 October)

Event Time Altitude Azimuth Distance (km) Brightness Sun altitude
Rises 18:58:09 0° 326° (NNW) 3,402 8.2 -14.8°
Reaches altitude 10° 19:00:37 10° 324° (NW) 2,461 7.4 -15.2°
Maximum altitude 19:06:10 61° 245° (WSW) 946 4.6 -16.0°
Drops below altitude 10° 19:11:40 10° 166° (SSE) 2,441 6.3 -16.8°
Enters shadow 19:12:11 - 166° (SSE) 2,634 6.4 -16.8°
